CZ-6A DEB, 60766

Orbit data source: Space-Track

CZ-6A DEB, 60766 is space debris in LEO originally from a launch on Tue, 06 Aug 2024 UTC launched from the Taiyaun Space Center, China (TSC). Debris objects in space refer to the collection of defunct objects orbiting the Earth. Examples of debris include non-operational satellites, rocket bodies, and fragments generated from explosions, collisions, or faulty payload assembly.

Loading next visibility...
Identifier
60766, 2024-140ER
Orbit
LEO
Country
Flag of CNCN / PRC
Related business
Manufacturer
SAST
Mission
Spacecraft
Bus & Motor
Unknown
Mass
Unknown
Launch date (UTC)
2024-08-06 (2 years ago)
Launch vehicle
Unknown
Launch site
Taiyaun Space Center, China (TSC)
Object type
Payload
Rocket body
Debris
Shape & HBR
Unknown shape, 0.1 m
Radar Cross Section
Medium (>0.1 m² and <1 m²)

Expand to show TLE details & history
Last TLE update: 14 hours ago

TLE from 14 hours ago
0 CZ-6A DEB
1 60766U 24140ER  26171.24800490  .00005374  00000-0  93930-3 0  9996
2 60766  89.0452 273.2020 0083530 234.9950 124.3406 14.65498103 98695
Epoch: 2026-06-20T05:57Z
TLE epoch observation values (Epoch: 2026-06-20T05:57:07.623Z)
Latitude
0.00001°
Longitude
-84.54512°
Altitude
712.172 km
Speed
7.482 km/s
True Right ascension
18h 12m 48s
True Declination
0° 00' 00"
Sunlit
Object was in full shadow at epoch
Visualization orbit readout
Latitude
Unknown
Longitude
Unknown
Altitude
Unknown
Speed
Unknown
Apparent Right ascension
Unknown
Apparent Declination
Unknown
Sunlit
N/A
Visualization observer readout
Local Sidereal Time
07:19:52
Azimuth
Unknown
Elevation
Unknown
Doppler factor
Unknown
Orbital elements
Apogee altitude
731.255 km
Perigee altitude
613.47 km
Semi-major axis
7,050.499 km
Eccentricity
0.00835
Inclination
89.0452°
RAAN
273.202°
Arg. of periapsis
234.995°
True anomaly
125.12629°
Mean anomaly
124.3406°
Eccentric anomaly
124.73391°
Mean motion
3.66618 °/min
Orbital period
98.19 mins
BSTAR
0.0009393
Loading maneuver chart data...
Computing Atmospheric mass density...
Loading historical data...
Loading historical data...
Loading historical data...
Loading historical data...
Loading historical data...
Loading historical data...
Loading historical data...

Documentation

Showing up to 5 results
|